Time,TemperatureF,DewpointF,PressureIn,WindDirection,WindDirectionDegrees,WindSpeedMPH,WindSpeedGustMPH,Humidity,HourlyPrecipIn,Conditions,Clouds,dailyrainin,SoftwareType,DateUTC
2013-06-03 00:00:00,63.1,62.2,29.81,SSW,204,4.0,4.0,97,0.00,,,0.00,Wunderground v.1.15,2013-06-03 04:00:00,
2013-06-03 00:05:00,63.3,62.4,29.81,SW,226,3.0,8.0,97,0.00,,,0.00,Wunderground v.1.15,2013-06-03 04:05:00,
2013-06-03 00:10:00,63.2,62.3,29.81,SSW,209,3.0,3.0,97,0.00,,,0.00,Wunderground v.1.15,2013-06-03 04:10:00,
2013-06-03 00:15:00,63.2,62.3,29.81,SW,216,2.0,4.0,97,0.00,,,0.00,Wunderground v.1.15,2013-06-03 04:15:00,
2013-06-03 00:25:00,62.8,61.9,29.81,SSW,212,3.0,8.0,97,0.00,,,0.00,Wunderground v.1.15,2013-06-03 04:25:00,
2013-06-03 00:30:00,62.5,61.6,29.81,SSW,201,4.0,4.0,97,0.00,,,0.00,Wunderground v.1.15,2013-06-03 04:30:00,
2013-06-03 00:35:00,62.3,61.4,29.81,SW,216,5.0,5.0,97,0.00,,,0.00,Wunderground v.1.15,2013-06-03 04:35:00,
2013-06-03 00:40:00,62.3,61.4,29.81,SSW,202,4.0,4.0,97,0.00,,,0.00,Wunderground v.1.15,2013-06-03 04:40:00,
2013-06-03 00:45:00,62.3,61.4,29.81,SW,220,3.0,8.0,97,0.00,,,0.00,Wunderground v.1.15,2013-06-03 04:45:00,
2013-06-03 00:50:00,62.3,61.4,29.82,SSW,199,3.0,8.0,97,0.00,,,0.00,Wunderground v.1.15,2013-06-03 04:50:00,
2013-06-03 00:55:00,62.2,61.3,29.81,South,182,3.0,8.0,97,0.00,,,0.00,Wunderground v.1.15,2013-06-03 04:55:00,
2013-06-03 01:00:00,62.2,61.3,29.81,South,184,2.0,8.0,97,0.00,,,0.00,Wunderground v.1.15,2013-06-03 05:00:00,
2013-06-03 01:10:00,62.0,61.1,29.82,SSW,196,2.0,8.0,97,0.00,,,0.00,Wunderground v.1.15,2013-06-03 05:10:00,
2013-06-03 01:15:00,62.0,61.1,29.82,SSW,193,3.0,8.0,97,0.00,,,0.00,Wunderground v.1.15,2013-06-03 05:15:00,
2013-06-03 01:20:00,62.0,61.1,29.82,SSE,167,2.0,8.0,97,0.00,,,0.00,Wunderground v.1.15,2013-06-03 05:20:00,
2013-06-03 01:25:00,61.9,61.0,29.81,South,188,3.0,8.0,97,0.00,,,0.00,Wunderground v.1.15,2013-06-03 05:25:00,
2013-06-03 01:30:00,61.8,60.9,29.81,South,169,3.0,3.0,97,0.00,,,0.00,Wunderground v.1.15,2013-06-03 05:30:00,
2013-06-03 01:40:00,61.5,60.6,29.80,SSW,202,2.0,2.0,97,0.00,,,0.00,Wunderground v.1.15,2013-06-03 05:40:00,
2013-06-03 01:45:00,61.4,60.5,29.80,SW,223,2.0,3.0,97,0.00,,,0.00,Wunderground v.1.15,2013-06-03 05:45:00,
2013-06-03 01:50:00,61.3,60.4,29.80,SW,229,3.0,3.0,97,0.00,,,0.00,Wunderground v.1.15,2013-06-03 05:50:00,
2013-06-03 01:55:00,61.4,60.5,29.80,SW,234,3.0,8.0,97,0.00,,,0.00,Wunderground v.1.15,2013-06-03 05:55:00,
2013-06-03 02:00:00,61.4,60.8,29.80,SW,230,3.0,8.0,98,0.00,,,0.00,Wunderground v.1.15,2013-06-03 06:00:00,
2013-06-03 02:05:00,61.5,60.6,29.80,SW,227,2.0,8.0,97,0.00,,,0.00,Wunderground v.1.15,2013-06-03 06:05:00,
2013-06-03 02:15:00,61.1,60.2,29.80,South,182,3.0,8.0,97,0.00,,,0.00,Wunderground v.1.15,2013-06-03 06:15:00,
2013-06-03 02:20:00,60.7,59.8,29.80,South,184,2.0,8.0,97,0.00,,,0.00,Wunderground v.1.15,2013-06-03 06:20:00,
2013-06-03 02:25:00,60.3,59.4,29.80,South,178,2.0,8.0,97,0.00,,,0.00,Wunderground v.1.15,2013-06-03 06:25:00,
2013-06-03 02:30:00,59.8,58.9,29.80,South,184,2.0,8.0,97,0.00,,,0.00,Wunderground v.1.15,2013-06-03 06:30:00,
2013-06-03 02:35:00,59.5,58.6,29.80,SSW,196,3.0,8.0,97,0.00,,,0.00,Wunderground v.1.15,2013-06-03 06:35:00,
2013-06-03 02:45:00,59.3,58.4,29.80,SSW,192,2.0,8.0,97,0.00,,,0.00,Wunderground v.1.15,2013-06-03 06:45:00,
2013-06-03 02:50:00,58.9,58.1,29.79,South,175,2.0,2.0,97,0.00,,,0.00,Wunderground v.1.15,2013-06-03 06:50:00,
2013-06-03 02:55:00,58.7,57.9,29.79,SW,227,3.0,3.0,97,0.00,,,0.00,Wunderground v.1.15,2013-06-03 06:55:00,
2013-06-03 03:00:00,58.6,57.8,29.79,SW,226,2.0,2.0,97,0.00,,,0.00,Wunderground v.1.15,2013-06-03 07:00:00,
2013-06-03 03:05:00,58.5,57.7,29.78,SW,226,2.0,8.0,97,0.00,,,0.00,Wunderground v.1.15,2013-06-03 07:05:00,
2013-06-03 03:15:00,58.2,57.4,29.78,SW,233,2.0,8.0,97,0.00,,,0.00,Wunderground v.1.15,2013-06-03 07:15:00,
2013-06-03 03:20:00,58.0,57.2,29.78,SSW,200,2.0,8.0,97,0.00,,,0.00,Wunderground v.1.15,2013-06-03 07:20:00,
2013-06-03 03:25:00,57.9,57.1,29.78,SSW,205,3.0,8.0,97,0.00,,,0.00,Wunderground v.1.15,2013-06-03 07:25:00,
2013-06-03 03:30:00,57.7,56.9,29.78,SW,215,3.0,8.0,97,0.00,,,0.00,Wunderground v.1.15,2013-06-03 07:30:00,
2013-06-03 03:40:00,57.6,57.0,29.78,SSW,205,3.0,8.0,98,0.00,,,0.00,Wunderground v.1.15,2013-06-03 07:40:00,
2013-06-03 03:45:00,57.6,57.0,29.78,SSW,206,3.0,8.0,98,0.00,,,0.00,Wunderground v.1.15,2013-06-03 07:45:00,
2013-06-03 03:50:00,57.7,57.1,29.78,SSW,205,3.0,8.0,98,0.00,,,0.00,Wunderground v.1.15,2013-06-03 07:50:00,
2013-06-03 04:00:00,57.8,57.2,29.79,SSW,201,4.0,4.0,98,0.00,,,0.00,Wunderground v.1.15,2013-06-03 08:00:00,
2013-06-03 04:05:00,57.8,57.2,29.78,SSW,202,4.0,8.0,98,0.00,,,0.00,Wunderground v.1.15,2013-06-03 08:05:00,
2013-06-03 04:10:00,57.8,57.2,29.78,SW,227,3.0,3.0,98,0.00,,,0.00,Wunderground v.1.15,2013-06-03 08:10:00,
2013-06-03 04:15:00,57.9,57.3,29.79,SSW,203,3.0,5.0,98,0.00,,,0.00,Wunderground v.1.15,2013-06-03 08:15:00,
2013-06-03 04:25:00,58.2,57.6,29.79,SSW,196,4.0,8.0,98,0.00,,,0.00,Wunderground v.1.15,2013-06-03 08:25:00,
2013-06-03 04:30:00,58.4,57.8,29.78,SSW,195,4.0,4.0,98,0.00,,,0.00,Wunderground v.1.15,2013-06-03 08:30:00,
2013-06-03 04:35:00,58.5,57.9,29.79,SSW,202,4.0,8.0,98,0.00,,,0.00,Wunderground v.1.15,2013-06-03 08:35:00,
2013-06-03 04:40:00,58.6,58.0,29.79,SSW,200,4.0,4.0,98,0.00,,,0.00,Wunderground v.1.15,2013-06-03 08:40:00,
2013-06-03 04:45:00,58.6,58.0,29.79,SW,223,4.0,5.0,98,0.00,,,0.00,Wunderground v.1.15,2013-06-03 08:45:00,
2013-06-03 04:50:00,58.5,57.9,29.78,SW,229,4.0,8.0,98,0.00,,,0.00,Wunderground v.1.15,2013-06-03 08:50:00,
2013-06-03 05:00:00,58.5,57.9,29.78,SSW,208,4.0,4.0,98,0.00,,,0.00,Wunderground v.1.15,2013-06-03 09:00:00,
2013-06-03 05:05:00,58.5,57.9,29.78,SSW,211,4.0,8.0,98,0.00,,,0.00,Wunderground v.1.15,2013-06-03 09:05:00,
2013-06-03 05:10:00,58.5,57.9,29.79,SW,227,3.0,8.0,98,0.00,,,0.00,Wunderground v.1.15,2013-06-03 09:10:00,
2013-06-03 05:15:00,58.7,58.1,29.79,SW,236,4.0,8.0,98,0.00,,,0.00,Wunderground v.1.15,2013-06-03 09:15:00,
2013-06-03 05:20:00,58.7,58.1,29.80,SW,214,4.0,8.0,98,0.00,,,0.00,Wunderground v.1.15,2013-06-03 09:20:00,
2013-06-03 05:30:00,58.9,58.3,29.80,SW,219,4.0,8.0,98,0.00,,,0.00,Wunderground v.1.15,2013-06-03 09:30:00,
2013-06-03 05:35:00,58.9,58.3,29.80,WSW,242,4.0,8.0,98,0.00,,,0.00,Wunderground v.1.15,2013-06-03 09:35:00,
2013-06-03 05:40:00,59.0,58.4,29.80,SSW,198,4.0,8.0,98,0.00,,,0.00,Wunderground v.1.15,2013-06-03 09:40:00,
2013-06-03 05:45:00,59.1,58.8,29.80,WSW,237,3.0,8.0,99,0.00,,,0.00,Wunderground v.1.15,2013-06-03 09:45:00,
2013-06-03 05:50:00,59.3,59.0,29.80,SSW,200,3.0,8.0,99,0.00,,,0.00,Wunderground v.1.15,2013-06-03 09:50:00,
2013-06-03 05:55:00,59.4,59.1,29.80,South,190,4.0,8.0,99,0.00,,,0.00,Wunderground v.1.15,2013-06-03 09:55:00,
2013-06-03 06:05:00,59.8,59.5,29.81,South,190,1.0,8.0,99,0.00,,,0.00,Wunderground v.1.15,2013-06-03 10:05:00,
2013-06-03 06:10:00,59.9,59.6,29.81,WSW,255,2.0,8.0,99,0.00,,,0.00,Wunderground v.1.15,2013-06-03 10:10:00,
2013-06-03 06:15:00,59.9,59.6,29.81,South,187,2.0,8.0,99,0.00,,,0.00,Wunderground v.1.15,2013-06-03 10:15:00,
2013-06-03 06:20:00,59.8,59.5,29.82,South,170,2.0,8.0,99,0.00,,,0.00,Wunderground v.1.15,2013-06-03 10:20:00,
2013-06-03 06:25:00,59.7,59.4,29.82,SSE,165,3.0,8.0,99,0.00,,,0.00,Wunderground v.1.15,2013-06-03 10:25:00,
2013-06-03 06:35:00,58.5,57.9,29.83,South,186,4.0,8.0,98,0.00,,,0.00,Wunderground v.1.15,2013-06-03 10:35:00,
2013-06-03 06:40:00,58.1,57.5,29.84,SSW,196,5.0,5.0,98,0.00,,,0.00,Wunderground v.1.15,2013-06-03 10:40:00,
2013-06-03 06:45:00,58.3,57.7,29.84,SSW,201,5.0,6.0,98,0.00,,,0.00,Wunderground v.1.15,2013-06-03 10:45:00,
2013-06-03 06:50:00,58.6,58.3,29.84,SSW,212,6.0,9.0,99,0.00,,,0.00,Wunderground v.1.15,2013-06-03 10:50:00,
2013-06-03 06:55:00,58.8,58.5,29.84,SSW,204,7.0,9.0,99,0.00,,,0.00,Wunderground v.1.15,2013-06-03 10:55:00,
2013-06-03 07:00:00,58.9,58.6,29.85,South,188,8.0,8.0,99,0.00,,,0.00,Wunderground v.1.15,2013-06-03 11:00:00,
2013-06-03 07:10:00,58.6,58.3,29.84,SSW,206,7.0,7.0,99,0.00,,,0.00,Wunderground v.1.15,2013-06-03 11:10:00,
2013-06-03 07:15:00,58.6,58.3,29.85,SW,215,7.0,8.0,99,0.00,,,0.00,Wunderground v.1.15,2013-06-03 11:15:00,
2013-06-03 07:20:00,58.6,58.3,29.85,SW,227,6.0,8.0,99,0.00,,,0.00,Wunderground v.1.15,2013-06-03 11:20:00,
2013-06-03 07:25:00,58.6,58.3,29.85,SW,226,6.0,8.0,99,0.00,,,0.00,Wunderground v.1.15,2013-06-03 11:25:00,
2013-06-03 07:35:00,58.7,58.4,29.85,SSW,210,7.0,8.0,99,0.00,,,0.00,Wunderground v.1.15,2013-06-03 11:35:00,
2013-06-03 07:40:00,58.7,58.4,29.85,SSW,213,7.0,8.0,99,0.00,,,0.00,Wunderground v.1.15,2013-06-03 11:40:00,
2013-06-03 07:45:00,58.7,58.4,29.85,South,185,8.0,12.0,99,0.00,,,0.00,Wunderground v.1.15,2013-06-03 11:45:00,
2013-06-03 07:55:00,58.9,58.6,29.85,SW,221,8.0,8.0,99,0.00,,,0.00,Wunderground v.1.15,2013-06-03 11:55:00,
2013-06-03 08:00:00,59.0,58.7,29.85,SW,221,7.0,7.0,99,0.00,,,0.00,Wunderground v.1.15,2013-06-03 12:00:00,
2013-06-03 08:05:00,59.2,58.9,29.85,SW,229,6.0,8.0,99,0.00,,,0.00,Wunderground v.1.15,2013-06-03 12:05:00,
2013-06-03 08:15:00,59.4,59.1,29.85,South,182,5.0,8.0,99,0.00,,,0.00,Wunderground v.1.15,2013-06-03 12:15:00,
2013-06-03 08:20:00,59.6,59.3,29.85,SSW,203,4.0,8.0,99,0.00,,,0.00,Wunderground v.1.15,2013-06-03 12:20:00,
2013-06-03 08:25:00,59.8,59.5,29.84,SSW,207,3.0,8.0,99,0.00,,,0.00,Wunderground v.1.15,2013-06-03 12:25:00,
2013-06-03 08:30:00,60.0,59.7,29.84,SSW,205,3.0,3.0,99,0.00,,,0.00,Wunderground v.1.15,2013-06-03 12:30:00,
2013-06-03 08:35:00,60.1,59.8,29.84,South,188,3.0,4.0,99,0.00,,,0.00,Wunderground v.1.15,2013-06-03 12:35:00,
2013-06-03 08:40:00,60.4,60.1,29.84,West,259,3.0,4.0,99,0.00,,,0.00,Wunderground v.1.15,2013-06-03 12:40:00,
2013-06-03 08:50:00,60.7,60.4,29.83,West,277,2.0,2.0,99,0.00,,,0.00,Wunderground v.1.15,2013-06-03 12:50:00,
2013-06-03 08:55:00,61.1,60.8,29.83,SW,229,2.0,4.0,99,0.00,,,0.00,Wunderground v.1.15,2013-06-03 12:55:00,
2013-06-03 09:00:00,61.6,61.3,29.83,WSW,237,2.0,4.0,99,0.00,,,0.01,Wunderground v.1.15,2013-06-03 13:00:00,
2013-06-03 09:05:00,61.7,61.4,29.83,SW,234,4.0,4.0,99,0.00,,,0.01,Wunderground v.1.15,2013-06-03 13:05:00,
2013-06-03 09:10:00,61.8,61.5,29.83,SW,231,4.0,4.0,99,0.00,,,0.01,Wunderground v.1.15,2013-06-03 13:10:00,
2013-06-03 09:20:00,62.2,61.9,29.83,SW,228,4.0,4.0,99,0.00,,,0.01,Wunderground v.1.15,2013-06-03 13:20:00,
2013-06-03 09:25:00,62.2,61.9,29.83,SW,220,6.0,7.0,99,0.00,,,0.01,Wunderground v.1.15,2013-06-03 13:25:00,
2013-06-03 09:30:00,62.4,62.1,29.83,SW,235,6.0,6.0,99,0.00,,,0.01,Wunderground v.1.15,2013-06-03 13:30:00,
2013-06-03 09:35:00,62.4,62.1,29.83,SW,222,4.0,10.0,99,0.00,,,0.01,Wunderground v.1.15,2013-06-03 13:35:00,
2013-06-03 09:45:00,62.3,61.7,29.82,WSW,253,4.0,10.0,98,0.00,,,0.01,Wunderground v.1.15,2013-06-03 13:45:00,
2013-06-03 09:55:00,62.5,61.9,29.82,SSW,213,3.0,10.0,98,0.00,,,0.01,Wunderground v.1.15,2013-06-03 13:55:00,
2013-06-03 10:00:00,62.5,61.9,29.82,WSW,254,3.0,3.0,98,0.00,,,0.01,Wunderground v.1.15,2013-06-03 14:00:00,
2013-06-03 10:05:00,62.6,62.0,29.82,SW,234,3.0,10.0,98,0.00,,,0.01,Wunderground v.1.15,2013-06-03 14:05:00,
2013-06-03 10:10:00,62.7,62.1,29.82,SW,229,3.0,3.0,98,0.00,,,0.01,Wunderground v.1.15,2013-06-03 14:10:00,
2013-06-03 10:15:00,62.8,62.2,29.81,SSW,204,2.0,10.0,98,0.00,,,0.01,Wunderground v.1.15,2013-06-03 14:15:00,
2013-06-03 10:20:00,62.9,62.3,29.81,West,262,3.0,10.0,98,0.00,,,0.01,Wunderground v.1.15,2013-06-03 14:20:00,
2013-06-03 10:30:00,63.0,62.1,29.82,SW,236,4.0,4.0,97,0.00,,,0.01,Wunderground v.1.15,2013-06-03 14:30:00,
2013-06-03 10:35:00,63.4,62.5,29.82,SW,235,4.0,10.0,97,0.00,,,0.01,Wunderground v.1.15,2013-06-03 14:35:00,
2013-06-03 10:40:00,63.4,62.2,29.81,SSW,209,4.0,4.0,96,0.00,,,0.01,Wunderground v.1.15,2013-06-03 14:40:00,
2013-06-03 10:45:00,63.8,62.9,29.82,WSW,251,4.0,5.0,97,0.00,,,0.01,Wunderground v.1.15,2013-06-03 14:45:00,
2013-06-03 10:50:00,64.2,63.0,29.82,WSW,244,4.0,10.0,96,0.00,,,0.01,Wunderground v.1.15,2013-06-03 14:50:00,
2013-06-03 11:00:00,64.7,63.2,29.83,West,262,6.0,6.0,95,0.00,,,0.01,Wunderground v.1.15,2013-06-03 15:00:00,
2013-06-03 11:05:00,65.1,63.6,29.83,WSW,257,6.0,10.0,95,0.00,,,0.02,Wunderground v.1.15,2013-06-03 15:05:00,
2013-06-03 11:10:00,65.4,63.6,29.83,West,264,6.0,6.0,94,0.00,,,0.02,Wunderground v.1.15,2013-06-03 15:10:00,
2013-06-03 11:15:00,65.7,63.6,29.83,WSW,238,5.0,10.0,93,0.00,,,0.02,Wunderground v.1.15,2013-06-03 15:15:00,
2013-06-03 11:20:00,65.7,63.6,29.83,SW,232,6.0,10.0,93,0.00,,,0.02,Wunderground v.1.15,2013-06-03 15:20:00,
2013-06-03 11:25:00,65.8,63.7,29.82,WSW,239,6.0,10.0,93,0.00,,,0.02,Wunderground v.1.15,2013-06-03 15:25:00,
2013-06-03 11:35:00,66.2,63.5,29.82,SSW,200,6.0,10.0,91,0.00,,,0.02,Wunderground v.1.15,2013-06-03 15:35:00,
2013-06-03 11:40:00,66.6,64.2,29.82,SSW,213,5.0,10.0,92,0.00,,,0.02,Wunderground v.1.15,2013-06-03 15:40:00,
2013-06-03 11:45:00,67.0,64.0,29.82,SW,216,6.0,10.0,90,0.00,,,0.02,Wunderground v.1.15,2013-06-03 15:45:00,
2013-06-03 11:50:00,67.6,63.9,29.82,West,261,7.0,10.0,88,0.00,,,0.02,Wunderground v.1.15,2013-06-03 15:50:00,
2013-06-03 12:00:00,68.2,64.2,29.82,WSW,247,7.0,7.0,87,0.00,,,0.02,Wunderground v.1.15,2013-06-03 16:00:00,
2013-06-03 12:05:00,68.4,64.4,29.82,SSW,194,7.0,10.0,87,0.00,,,0.02,Wunderground v.1.15,2013-06-03 16:05:00,
2013-06-03 12:10:00,68.6,64.6,29.82,South,180,5.0,5.0,87,0.00,,,0.02,Wunderground v.1.15,2013-06-03 16:10:00,
2013-06-03 12:20:00,67.9,63.9,29.81,South,187,6.0,10.0,87,0.00,,,0.02,Wunderground v.1.15,2013-06-03 16:20:00,
2013-06-03 12:25:00,68.0,64.3,29.81,SSW,210,6.0,10.0,88,0.00,,,0.02,Wunderground v.1.15,2013-06-03 16:25:00,
2013-06-03 12:30:00,68.0,64.3,29.81,SSW,206,6.0,6.0,88,0.00,,,0.02,Wunderground v.1.15,2013-06-03 16:30:00,
2013-06-03 12:40:00,68.7,65.0,29.81,WSW,246,6.0,6.0,88,0.00,,,0.02,Wunderground v.1.15,2013-06-03 16:40:00,
2013-06-03 12:45:00,68.8,64.8,29.81,SSW,211,5.0,10.0,87,0.00,,,0.02,Wunderground v.1.15,2013-06-03 16:45:00,
2013-06-03 12:50:00,68.8,64.8,29.81,SSW,207,5.0,10.0,87,0.00,,,0.02,Wunderground v.1.15,2013-06-03 16:50:00,
2013-06-03 12:55:00,68.5,64.8,29.81,West,269,5.0,10.0,88,0.00,,,0.02,Wunderground v.1.15,2013-06-03 16:55:00,
2013-06-03 13:00:00,68.3,64.6,29.81,SSW,211,6.0,10.0,88,0.00,,,0.02,Wunderground v.1.15,2013-06-03 17:00:00,
2013-06-03 13:05:00,67.9,64.2,29.81,WSW,258,8.0,10.0,88,0.00,,,0.02,Wunderground v.1.15,2013-06-03 17:05:00,
2013-06-03 13:15:00,67.9,63.9,29.80,SW,229,9.0,13.0,87,0.00,,,0.02,Wunderground v.1.15,2013-06-03 17:15:00,
2013-06-03 13:20:00,67.9,63.9,29.80,SSW,200,9.0,9.0,87,0.00,,,0.02,Wunderground v.1.15,2013-06-03 17:20:00,
2013-06-03 13:25:00,68.3,64.3,29.80,SW,225,8.0,11.0,87,0.00,,,0.02,Wunderground v.1.15,2013-06-03 17:25:00,
2013-06-03 13:30:00,68.8,64.4,29.80,West,263,7.0,10.0,86,0.00,,,0.02,Wunderground v.1.15,2013-06-03 17:30:00,
2013-06-03 13:35:00,69.1,64.7,29.80,SW,214,8.0,14.0,86,0.00,,,0.02,Wunderground v.1.15,2013-06-03 17:35:00,
2013-06-03 13:45:00,69.1,64.7,29.80,SW,217,8.0,10.0,86,0.00,,,0.02,Wunderground v.1.15,2013-06-03 17:45:00,
2013-06-03 13:50:00,68.8,64.8,29.80,WSW,258,9.0,10.0,87,0.00,,,0.02,Wunderground v.1.15,2013-06-03 17:50:00,
2013-06-03 13:55:00,68.9,64.9,29.79,WSW,243,8.0,10.0,87,0.00,,,0.02,Wunderground v.1.15,2013-06-03 17:55:00,
2013-06-03 14:00:00,70.4,66.3,29.79,SW,236,6.0,10.0,87,0.00,,,0.02,Wunderground v.1.15,2013-06-03 18:00:00,
2013-06-03 14:05:00,70.4,65.3,29.79,SW,223,6.0,10.0,84,0.00,,,0.02,Wunderground v.1.15,2013-06-03 18:05:00,
2013-06-03 14:10:00,69.9,65.2,29.79,WSW,258,8.0,8.0,85,0.00,,,0.02,Wunderground v.1.15,2013-06-03 18:10:00,
2013-06-03 14:20:00,70.3,65.9,29.78,SW,217,7.0,7.0,86,0.00,,,0.02,Wunderground v.1.15,2013-06-03 18:20:00,
2013-06-03 14:25:00,70.4,65.3,29.78,SSW,194,5.0,8.0,84,0.00,,,0.02,Wunderground v.1.15,2013-06-03 18:25:00,
2013-06-03 14:30:00,70.0,65.6,29.78,SSW,200,5.0,10.0,86,0.00,,,0.02,Wunderground v.1.15,2013-06-03 18:30:00,
2013-06-03 14:35:00,70.1,65.0,29.78,South,189,5.0,10.0,84,0.00,,,0.02,Wunderground v.1.15,2013-06-03 18:35:00,
2013-06-03 14:40:00,70.3,65.2,29.78,South,172,4.0,10.0,84,0.00,,,0.02,Wunderground v.1.15,2013-06-03 18:40:00,
2013-06-03 14:50:00,69.4,64.7,29.78,SW,215,6.0,10.0,85,0.00,,,0.02,Wunderground v.1.15,2013-06-03 18:50:00,
2013-06-03 14:55:00,68.9,64.2,29.78,SSE,159,5.0,10.0,85,0.00,,,0.02,Wunderground v.1.15,2013-06-03 18:55:00,
2013-06-03 15:00:00,68.4,63.4,29.78,SSW,213,6.0,10.0,84,0.00,,,0.02,Wunderground v.1.15,2013-06-03 19:00:00,
2013-06-03 15:05:00,68.4,63.7,29.77,South,186,6.0,10.0,85,0.00,,,0.02,Wunderground v.1.15,2013-06-03 19:05:00,
2013-06-03 15:10:00,68.3,63.6,29.77,SW,220,6.0,10.0,85,0.00,,,0.02,Wunderground v.1.15,2013-06-03 19:10:00,
2013-06-03 15:15:00,68.9,64.2,29.77,SSW,213,6.0,10.0,85,0.00,,,0.02,Wunderground v.1.15,2013-06-03 19:15:00,
2013-06-03 15:25:00,68.5,62.8,29.77,WSW,240,8.0,10.0,82,0.00,,,0.02,Wunderground v.1.15,2013-06-03 19:25:00,
2013-06-03 15:30:00,68.5,63.1,29.77,SW,233,9.0,9.0,83,0.00,,,0.02,Wunderground v.1.15,2013-06-03 19:30:00,
2013-06-03 15:35:00,68.4,62.0,29.77,SW,219,9.0,11.0,80,0.00,,,0.02,Wunderground v.1.15,2013-06-03 19:35:00,
2013-06-03 15:40:00,68.2,62.5,29.76,SSW,212,9.0,9.0,82,0.00,,,0.02,Wunderground v.1.15,2013-06-03 19:40:00,
2013-06-03 15:45:00,67.7,62.0,29.77,WSW,250,10.0,11.0,82,0.00,,,0.02,Wunderground v.1.15,2013-06-03 19:45:00,
2013-06-03 15:55:00,67.3,62.0,29.77,South,190,11.0,11.0,83,0.00,,,0.02,Wunderground v.1.15,2013-06-03 19:55:00,
2013-06-03 16:00:00,67.7,62.3,29.77,SSW,204,10.0,12.0,83,0.00,,,0.02,Wunderground v.1.15,2013-06-03 20:00:00,
2013-06-03 16:05:00,67.4,61.7,29.76,SSW,211,10.0,12.0,82,0.00,,,0.02,Wunderground v.1.15,2013-06-03 20:05:00,
2013-06-03 16:10:00,67.5,62.2,29.76,SSW,200,11.0,15.0,83,0.00,,,0.02,Wunderground v.1.15,2013-06-03 20:10:00,
2013-06-03 16:15:00,67.8,62.1,29.76,SSW,193,11.0,15.0,82,0.00,,,0.02,Wunderground v.1.15,2013-06-03 20:15:00,
2013-06-03 16:20:00,68.1,62.4,29.76,SW,230,11.0,13.0,82,0.00,,,0.02,Wunderground v.1.15,2013-06-03 20:20:00,
2013-06-03 16:30:00,68.1,62.0,29.76,South,173,12.0,12.0,81,0.00,,,0.02,Wunderground v.1.15,2013-06-03 20:30:00,
2013-06-03 16:40:00,67.9,62.9,29.76,SSW,209,11.0,11.0,84,0.00,,,0.02,Wunderground v.1.15,2013-06-03 20:40:00,
2013-06-03 16:45:00,67.6,62.3,29.76,SSW,200,12.0,21.0,83,0.00,,,0.02,Wunderground v.1.15,2013-06-03 20:45:00,
2013-06-03 16:50:00,67.4,62.4,29.76,South,189,12.0,12.0,84,0.00,,,0.02,Wunderground v.1.15,2013-06-03 20:50:00,
2013-06-03 16:55:00,67.2,62.2,29.76,SW,223,12.0,12.0,84,0.00,,,0.02,Wunderground v.1.15,2013-06-03 20:55:00,
2013-06-03 17:05:00,67.0,62.0,29.76,SW,215,11.0,12.0,84,0.00,,,0.02,Wunderground v.1.15,2013-06-03 21:05:00,
2013-06-03 17:10:00,66.9,61.9,29.76,WSW,239,11.0,11.0,84,0.00,,,0.02,Wunderground v.1.15,2013-06-03 21:10:00,
2013-06-03 17:15:00,67.2,62.2,29.75,SW,234,10.0,11.0,84,0.00,,,0.02,Wunderground v.1.15,2013-06-03 21:15:00,
2013-06-03 17:20:00,67.3,62.3,29.76,SW,234,9.0,11.0,84,0.00,,,0.02,Wunderground v.1.15,2013-06-03 21:20:00,
2013-06-03 17:25:00,66.9,62.2,29.75,SSW,192,10.0,13.0,85,0.00,,,0.02,Wunderground v.1.15,2013-06-03 21:25:00,
2013-06-03 17:35:00,66.6,61.9,29.75,SW,221,11.0,18.0,85,0.00,,,0.02,Wunderground v.1.15,2013-06-03 21:35:00,
2013-06-03 17:40:00,66.4,62.4,29.75,SSW,198,11.0,11.0,87,0.00,,,0.02,Wunderground v.1.15,2013-06-03 21:40:00,
2013-06-03 17:45:00,66.5,62.2,29.75,South,191,11.0,13.0,86,0.00,,,0.02,Wunderground v.1.15,2013-06-03 21:45:00,
2013-06-03 17:50:00,66.3,62.3,29.75,South,189,11.0,11.0,87,0.00,,,0.02,Wunderground v.1.15,2013-06-03 21:50:00,
2013-06-03 17:55:00,66.1,62.1,29.75,SSW,198,11.0,11.0,87,0.00,,,0.02,Wunderground v.1.15,2013-06-03 21:55:00,
2013-06-03 18:00:00,66.0,62.0,29.75,SSW,196,10.0,13.0,87,0.00,,,0.02,Wunderground v.1.15,2013-06-03 22:00:00,
2013-06-03 18:10:00,65.8,61.8,29.75,SSW,204,9.0,9.0,87,0.00,,,0.02,Wunderground v.1.15,2013-06-03 22:10:00,
2013-06-03 18:15:00,65.4,61.4,29.75,South,178,10.0,10.0,87,0.00,,,0.02,Wunderground v.1.15,2013-06-03 22:15:00,
2013-06-03 18:20:00,65.3,61.7,29.75,WSW,254,10.0,10.0,88,0.00,,,0.02,Wunderground v.1.15,2013-06-03 22:20:00,
2013-06-03 18:25:00,65.7,61.7,29.75,WSW,242,8.0,10.0,87,0.00,,,0.02,Wunderground v.1.15,2013-06-03 22:25:00,
2013-06-03 18:30:00,65.8,61.8,29.74,SW,228,7.0,10.0,87,0.00,,,0.02,Wunderground v.1.15,2013-06-03 22:30:00,
2013-06-03 18:40:00,65.4,61.4,29.75,SW,217,6.0,6.0,87,0.00,,,0.02,Wunderground v.1.15,2013-06-03 22:40:00,
2013-06-03 18:45:00,65.0,61.0,29.75,South,181,6.0,10.0,87,0.00,,,0.02,Wunderground v.1.15,2013-06-03 22:45:00,
2013-06-03 18:50:00,64.6,61.0,29.75,SW,217,5.0,10.0,88,0.00,,,0.02,Wunderground v.1.15,2013-06-03 22:50:00,
2013-06-03 18:55:00,64.4,61.1,29.75,South,188,5.0,10.0,89,0.00,,,0.02,Wunderground v.1.15,2013-06-03 22:55:00,
2013-06-03 19:00:00,64.1,60.8,29.75,SSW,200,5.0,5.0,89,0.00,,,0.02,Wunderground v.1.15,2013-06-03 23:00:00,
2013-06-03 19:05:00,64.0,61.0,29.75,South,182,5.0,10.0,90,0.00,,,0.02,Wunderground v.1.15,2013-06-03 23:05:00,
2013-06-03 19:15:00,64.2,60.9,29.75,SSW,213,7.0,10.0,89,0.00,,,0.02,Wunderground v.1.15,2013-06-03 23:15:00,
2013-06-03 19:20:00,64.3,61.0,29.75,South,179,6.0,10.0,89,0.00,,,0.02,Wunderground v.1.15,2013-06-03 23:20:00,
2013-06-03 19:25:00,64.0,60.7,29.75,SSW,192,7.0,10.0,89,0.00,,,0.02,Wunderground v.1.15,2013-06-03 23:25:00,
2013-06-03 19:30:00,63.6,60.3,29.75,SSW,202,7.0,10.0,89,0.00,,,0.02,Wunderground v.1.15,2013-06-03 23:30:00,
2013-06-03 19:35:00,63.2,60.2,29.75,SW,230,7.0,10.0,90,0.00,,,0.02,Wunderground v.1.15,2013-06-03 23:35:00,
2013-06-03 19:45:00,63.0,60.3,29.75,South,189,7.0,10.0,91,0.00,,,0.02,Wunderground v.1.15,2013-06-03 23:45:00,
2013-06-03 19:50:00,63.0,60.3,29.75,SW,231,6.0,10.0,91,0.00,,,0.02,Wunderground v.1.15,2013-06-03 23:50:00,
2013-06-03 19:55:00,63.0,60.6,29.75,South,180,5.0,10.0,92,0.00,,,0.02,Wunderground v.1.15,2013-06-03 23:55:00,
2013-06-03 20:00:00,62.9,60.5,29.75,SSW,197,4.0,4.0,92,0.00,,,0.02,Wunderground v.1.15,2013-06-04 00:00:00,
2013-06-03 20:05:00,62.9,60.5,29.75,SSW,206,4.0,6.0,92,0.00,,,0.02,Wunderground v.1.15,2013-06-04 00:05:00,
2013-06-03 20:10:00,62.8,60.7,29.75,SW,216,4.0,10.0,93,0.00,,,0.02,Wunderground v.1.15,2013-06-04 00:10:00,
2013-06-03 20:20:00,62.6,60.5,29.75,SSW,200,4.0,4.0,93,0.00,,,0.02,Wunderground v.1.15,2013-06-04 00:20:00,
2013-06-03 20:25:00,62.4,60.3,29.75,SW,227,4.0,10.0,93,0.00,,,0.02,Wunderground v.1.15,2013-06-04 00:25:00,
2013-06-03 20:30:00,62.3,60.6,29.75,South,187,3.0,3.0,94,0.00,,,0.02,Wunderground v.1.15,2013-06-04 00:30:00,
2013-06-03 20:35:00,62.1,60.4,29.76,SSW,205,2.0,10.0,94,0.00,,,0.02,Wunderground v.1.15,2013-06-04 00:35:00,
2013-06-03 20:40:00,62.1,60.4,29.76,WSW,239,2.0,10.0,94,0.00,,,0.02,Wunderground v.1.15,2013-06-04 00:40:00,
2013-06-03 20:50:00,62.0,60.6,29.76,SW,219,1.0,10.0,95,0.00,,,0.02,Wunderground v.1.15,2013-06-04 00:50:00,
2013-06-03 20:55:00,62.0,60.6,29.76,SW,234,2.0,10.0,95,0.00,,,0.02,Wunderground v.1.15,2013-06-04 00:55:00,
2013-06-03 21:00:00,62.0,60.6,29.76,SW,226,2.0,10.0,95,0.00,,,0.02,Wunderground v.1.15,2013-06-04 01:00:00,
2013-06-03 21:05:00,62.0,60.6,29.76,WSW,238,3.0,10.0,95,0.00,,,0.02,Wunderground v.1.15,2013-06-04 01:05:00,
2013-06-03 21:10:00,62.1,60.7,29.76,SSW,198,4.0,10.0,95,0.00,,,0.02,Wunderground v.1.15,2013-06-04 01:10:00,
2013-06-03 21:15:00,62.2,61.0,29.77,SSW,200,4.0,10.0,96,0.00,,,0.02,Wunderground v.1.15,2013-06-04 01:15:00,
2013-06-03 21:20:00,62.7,61.5,29.76,SW,227,5.0,10.0,96,0.00,,,0.02,Wunderground v.1.15,2013-06-04 01:20:00,
2013-06-03 21:30:00,63.0,61.8,29.76,WSW,250,6.0,10.0,96,0.00,,,0.02,Wunderground v.1.15,2013-06-04 01:30:00,
2013-06-03 21:35:00,62.9,61.4,29.76,South,190,6.0,10.0,95,0.00,,,0.02,Wunderground v.1.15,2013-06-04 01:35:00,
2013-06-03 21:40:00,62.7,61.2,29.76,SSW,207,6.0,10.0,95,0.00,,,0.02,Wunderground v.1.15,2013-06-04 01:40:00,
2013-06-03 21:45:00,62.5,61.0,29.76,South,176,5.0,10.0,95,0.00,,,0.02,Wunderground v.1.15,2013-06-04 01:45:00,
2013-06-03 21:50:00,62.3,60.8,29.76,South,185,4.0,4.0,95,0.00,,,0.02,Wunderground v.1.15,2013-06-04 01:50:00,
2013-06-03 21:55:00,62.1,60.7,29.76,SSW,212,3.0,10.0,95,0.00,,,0.02,Wunderground v.1.15,2013-06-04 01:55:00,
2013-06-03 22:00:00,61.9,60.5,29.76,SSW,212,3.0,10.0,95,0.00,,,0.02,Wunderground v.1.15,2013-06-04 02:00:00,
2013-06-03 22:10:00,61.4,60.0,29.76,SW,223,3.0,10.0,95,0.00,,,0.02,Wunderground v.1.15,2013-06-04 02:10:00,
2013-06-03 22:15:00,61.3,59.9,29.77,SSW,192,3.0,10.0,95,0.00,,,0.02,Wunderground v.1.15,2013-06-04 02:15:00,
2013-06-03 22:20:00,61.1,59.7,29.77,SW,223,3.0,3.0,95,0.00,,,0.02,Wunderground v.1.15,2013-06-04 02:20:00,
2013-06-03 22:25:00,61.0,59.6,29.77,SW,224,2.0,10.0,95,0.00,,,0.02,Wunderground v.1.15,2013-06-04 02:25:00,
2013-06-03 22:30:00,60.9,59.5,29.77,SW,223,2.0,2.0,95,0.00,,,0.02,Wunderground v.1.15,2013-06-04 02:30:00,
2013-06-03 22:35:00,60.8,59.4,29.78,SW,224,1.0,10.0,95,0.00,,,0.02,Wunderground v.1.15,2013-06-04 02:35:00,
2013-06-03 22:40:00,60.6,59.2,29.78,NW,306,1.0,10.0,95,0.00,,,0.02,Wunderground v.1.15,2013-06-04 02:40:00,
2013-06-03 22:50:00,60.4,59.3,29.78,WNW,290,1.0,1.0,96,0.00,,,0.02,Wunderground v.1.15,2013-06-04 02:50:00,
2013-06-03 22:55:00,60.4,59.3,29.79,WNW,300,1.0,3.0,96,0.00,,,0.02,Wunderground v.1.15,2013-06-04 02:55:00,
2013-06-03 23:00:00,60.3,59.2,29.78,WNW,301,2.0,10.0,96,0.00,,,0.02,Wunderground v.1.15,2013-06-04 03:00:00,
2013-06-03 23:05:00,60.4,59.3,29.78,WNW,299,1.0,10.0,96,0.00,,,0.02,Wunderground v.1.15,2013-06-04 03:05:00,
2013-06-03 23:10:00,60.4,59.3,29.78,WNW,298,1.0,1.0,96,0.00,,,0.02,Wunderground v.1.15,2013-06-04 03:10:00,
2013-06-03 23:15:00,60.3,59.2,29.79,WNW,299,0.0,10.0,96,0.00,,,0.02,Wunderground v.1.15,2013-06-04 03:15:00,
2013-06-03 23:20:00,60.1,59.0,29.79,WNW,298,0.0,10.0,96,0.00,,,0.02,Wunderground v.1.15,2013-06-04 03:20:00,
2013-06-03 23:30:00,59.5,58.4,29.79,WNW,299,0.0,10.0,96,0.00,,,0.02,Wunderground v.1.15,2013-06-04 03:30:00,
2013-06-03 23:35:00,59.6,58.7,29.79,WNW,298,1.0,10.0,97,0.00,,,0.02,Wunderground v.1.15,2013-06-04 03:35:00,
2013-06-03 23:40:00,59.7,58.8,29.79,WNW,298,1.0,1.0,97,0.00,,,0.02,Wunderground v.1.15,2013-06-04 03:40:00,
2013-06-03 23:45:00,59.4,58.3,29.79,WNW,299,0.0,10.0,96,0.00,,,0.02,Wunderground v.1.15,2013-06-04 03:45:00,
2013-06-03 23:50:00,59.1,58.0,29.79,WNW,299,0.0,10.0,96,0.00,,,0.02,Wunderground v.1.15,2013-06-04 03:50:00,
2013-06-03 23:55:00,58.9,58.1,29.79,WNW,298,0.0,10.0,97,0.00,,,0.02,Wunderground v.1.15,2013-06-04 03:55:00,